Theta_e
356 357 355 349 319 315 310 316 323 319 320 326 328 326 323 323 320 312 331 338 340 346 356 359 363 363 362 362 362 363 362 362 362 362 361 360 362 361 362 361 362 361 361 361 361 359 358 357 360
356 355 351 340 312 307 310 321 318 322 325 327 327 325 322 319 328 329 332 336 347 352 355 357 363 362 363 362 363 362 362 362 362 362 362 362 362 361 362 361 362 362 361 360 361 360 359 358 357
355 355 339 324 315 309 311 322 323 326 329 327 323 325 323 321 330 332 334 344 350 352 354 356 363 363 363 362 362 361 361 361 362 361 362 362 362 362 362 360 361 361 362 360 359 361 360 359 358
354 347 339 315 310 317 319 324 328 327 327 325 323 318 324 333 331 333 341 349 350 351 353 358 362 362 362 363 362 362 362 361 362 362 360 360 360 361 361 361 359 359 361 360 360 359 360 359 359
341 329 316 315 315 319 325 329 330 326 325 323 322 316 320 332 335 336 341 349 349 349 353 359 365 363 363 362 362 362 362 361 361 361 362 360 359 359 360 360 358 356 360 360 359 358 358 357 356
325 321 311 307 313 323 327 328 329 324 323 321 321 318 319 334 338 340 341 347 350 350 355 357 362 363 363 363 362 362 362 362 361 361 361 360 360 360 358 359 360 358 359 358 357 357 357 357 357
325 319 313 316 315 320 326 331 325 323 322 320 324 315 321 331 338 341 345 349 351 353 354 354 355 358 363 363 362 362 360 360 360 361 361 360 359 359 358 359 359 359 357 358 357 357 357 357 357
333 323 316 317 314 318 327 328 328 325 321 327 326 317 322 331 336 342 345 347 348 349 351 350 351 355 356 358 363 363 361 361 360 358 357 358 357 357 356 358 357 357 358 357 358 357 357 356 356
338 317 315 318 319 321 327 324 329 329 323 326 326 325 332 336 339 339 340 342 344 347 347 347 349 351 353 355 358 361 360 361 360 360 359 356 350 349 353 351 354 356 355 356 356 356 356 355 353
324 315 319 326 327 324 326 326 324 323 322 323 326 332 336 337 334 337 337 338 340 341 345 346 348 349 350 356 354 353 356 355 353 355 352 352 346 347 350 352 351 352 354 355 357 355 355 352 351
326 318 325 327 329 330 326 326 325 321 317 322 323 328 333 331 333 335 337 339 339 339 343 345 346 349 349 351 351 351 353 352 352 354 353 350 351 349 350 349 349 350 352 349 350 347 345 345 349
324 328 326 330 329 327 326 327 321 320 321 327 330 332 332 329 330 334 335 338 339 339 342 344 346 347 348 349 350 350 351 351 350 352 353 350 349 347 349 348 350 347 350 348 345 345 345 344 347
325 327 330 330 330 323 326 321 319 320 327 330 331 331 329 329 331 331 335 335 340 339 342 344 345 346 347 348 348 349 350 351 350 349 351 351 349 348 348 349 351 350 350 348 346 345 345 345 345
328 328 328 329 326 325 321 321 320 322 327 327 328 325 327 330 330 327 329 329 333 338 340 342 344 346 346 345 345 346 348 348 350 350 350 351 351 349 350 350 348 349 349 348 347 346 346 344 345
326 320 324 329 327 324 325 317 316 323 324 324 323 323 326 327 329 327 327 327 334 336 338 340 342 345 344 344 345 345 348 347 348 351 352 352 352 350 350 350 348 348 349 349 347 347 346 343 343
323 323 312 324 327 324 320 309 320 324 321 320 320 322 324 324 327 327 327 328 333 337 336 337 344 344 342 343 344 347 349 348 349 352 351 353 353 353 351 349 348 350 349 349 347 345 343 343 344
317 307 313 318 327 323 318 311 320 323 320 318 318 318 321 321 323 325 328 328 330 334 336 335 341 341 341 344 344 344 346 349 350 354 352 351 350 354 351 351 350 350 349 348 348 346 344 343 344
308 308 315 314 321 322 316 314 318 320 319 318 318 318 319 320 322 325 327 329 330 332 333 335 339 340 340 341 342 345 346 348 349 351 349 349 350 352 353 353 352 351 349 346 348 347 348 346 347
314 315 313 317 322 319 316 315 316 319 318 316 315 316 318 320 323 324 326 328 331 332 332 334 336 339 339 338 340 342 342 346 349 351 350 348 344 346 354 353 352 352 349 349 349 348 346 347 348
314 313 313 318 322 319 316 314 317 317 317 318 318 317 318 319 319 322 324 326 329 331 334 335 336 337 338 339 342 344 345 346 348 352 352 352 352 352 355 353 352 351 349 349 349 348 346 346 348
312 310 311 313 317 315 316 310 313 317 319 320 321 323 322 320 319 321 323 325 327 331 334 335 336 337 338 340 342 346 348 347 347 349 350 352 353 354 357 355 353 351 351 349 349 349 348 345 348
306 317 318 317 309 301 312 298 309 314 315 318 320 321 323 325 324 324 323 326 328 330 335 336 336 336 337 339 342 342 342 342 344 345 349 352 354 355 357 356 354 351 351 350 350 351 350 349 345
310 319 317 314 307 304 307 302 304 313 312 315 318 320 322 325 327 326 324 326 332 335 335 336 336 336 339 340 342 342 343 344 345 347 348 349 353 355 357 355 354 352 352 351 350 351 348 350 347
320 314 312 308 305 296 301 301 301 307 314 317 321 322 323 324 326 328 328 328 330 334 336 336 336 337 339 341 342 343 342 344 345 346 346 348 346 348 351 356 353 353 353 353 352 352 352 347 349
313 302 297 295 295 296 302 300 303 312 316 320 321 324 324 324 325 326 328 328 331 332 334 337 337 337 339 340 342 343 344 344 345 346 345 346 346 345 346 351 354 352 352 353 354 352 351 351 350
308 302 298 290 292 296 303 300 306 315 320 327 325 325 324 324 325 326 329 330 331 333 335 337 337 336 339 340 340 342 344 345 345 348 346 346 347 348 348 346 350 355 354 354 353 352 353 352 353
308 303 304 301 299 297 299 305 310 316 322 325 324 325 325 327 326 327 329 330 331 333 335 337 338 338 338 340 342 341 344 345 347 349 349 348 349 349 348 347 347 352 355 354 353 352 351 351 352
308 311 300 297 292 291 296 301 301 311 317 324 324 324 327 330 332 333 332 334 334 333 333 338 339 338 339 340 343 344 344 346 347 350 351 351 351 351 351 351 350 345 344 345 349 351 349 350 350
306 301 301 301 298 294 292 297 308 312 318 322 324 324 326 328 330 332 334 333 335 338 335 334 338 338 339 340 342 345 348 348 349 349 350 352 352 351 351 350 344 340 340 342 347 348 350 349 350
306 303 301 297 295 300 296 299 314 315 317 324 326 326 326 328 328 333 334 335 337 349 348 336 338 339 341 342 343 344 347 351 352 352 352 354 352 353 353 346 341 344 345 342 341 340 341 341 342
Wind_Speed
3 3 1 1 3 3 3 3 4 6 5 3 12 3 5 3 1 2 3 6 5 5 3 4 8 10 11 12 14 12 11 12 11 12 12 12 12 13 13 12 12 12 11 12 12 11 10 12 11
3 2 1 1 4 4 4 1 6 3 7 13 7 5 4 3 3 5 6 5 6 6 5 4 7 9 10 11 12 13 12 11 12 11 11 10 12 12 12 12 11 12 11 11 13 11 11 11 12
4 2 0 2 2 2 3 2 7 11 12 5 5 6 2 1 2 6 2 8 7 6 5 7 10 10 10 11 11 11 11 11 11 10 10 9 10 10 11 11 10 10 12 11 11 12 11 11 12
0 0 1 3 3 1 3 5 10 12 6 7 7 7 2 2 5 4 7 7 7 6 5 9 12 11 12 11 11 11 11 11 11 9 8 8 8 9 8 8 8 8 11 10 10 11 10 10 10
3 2 3 2 1 2 3 6 12 8 6 6 3 4 3 3 3 9 8 7 7 5 4 6 11 11 11 10 10 11 11 10 9 9 8 7 7 7 6 8 8 9 10 10 9 9 10 11 11
3 2 3 2 2 2 4 5 6 7 5 6 6 5 1 1 5 5 6 6 5 6 5 4 9 10 10 10 9 9 10 9 8 8 7 7 6 7 6 7 7 8 8 8 7 8 8 10 9
3 3 1 0 1 2 4 6 4 4 5 2 10 5 0 2 5 6 6 6 5 4 4 3 4 7 10 9 9 8 9 8 7 6 6 7 5 5 5 7 6 7 7 8 8 7 6 8 8
2 2 3 6 3 1 6 3 7 6 4 9 6 6 6 5 6 6 6 5 5 3 3 4 4 4 3 4 9 8 7 6 6 5 5 4 2 3 2 5 2 5 6 7 8 7 5 4 6
1 5 4 5 7 4 7 5 3 6 10 2 5 6 10 10 7 7 5 3 3 3 3 4 4 3 2 2 3 6 6 5 7 6 5 4 2 2 4 2 4 4 3 5 6 6 6 5 4
3 3 3 2 8 4 0 5 6 4 4 4 6 11 13 10 7 10 7 5 4 5 4 5 4 3 3 2 2 1 1 2 2 1 2 3 3 2 1 3 1 2 4 3 6 6 5 6 2
1 2 2 3 9 1 5 5 2 7 2 5 10 17 11 6 5 8 8 8 9 5 4 6 4 3 4 4 2 1 1 2 3 4 4 4 3 1 1 2 1 1 2 2 3 3 2 2 2
2 5 3 7 15 5 7 5 4 4 4 7 17 17 10 9 7 6 5 6 8 5 7 5 5 5 5 3 3 3 3 3 3 4 4 3 2 3 2 2 2 2 1 3 2 1 2 1 1
2 3 3 6 7 13 13 9 6 6 7 13 16 12 11 8 8 4 6 5 5 6 8 6 5 5 4 5 4 3 4 4 4 5 4 4 4 4 3 3 3 3 3 3 4 3 3 2 1
2 2 2 4 9 9 7 2 4 4 7 13 14 7 7 9 10 6 5 8 7 6 6 5 6 6 5 6 5 4 4 4 5 4 4 5 4 4 4 3 3 4 3 4 4 4 3 3 3
4 3 1 6 4 3 2 6 4 7 7 14 8 6 7 7 4 6 7 7 5 5 3 7 7 6 6 6 5 4 4 4 3 3 4 3 4 4 4 3 4 4 4 4 3 3 2 3 3
4 4 4 2 2 2 5 1 3 6 10 11 6 5 6 8 6 5 5 6 4 5 6 6 7 6 6 5 5 2 2 3 3 2 2 3 4 4 4 3 3 3 3 3 3 3 3 3 4
4 3 3 2 2 4 3 3 6 7 6 7 6 6 7 7 6 8 9 9 7 8 9 8 7 7 7 5 3 2 3 3 3 2 2 3 4 4 4 3 3 4 3 4 4 2 2 2 3
6 5 5 6 6 3 4 5 8 10 8 9 7 7 8 9 15 11 10 10 9 8 8 8 6 7 7 3 2 1 3 3 3 3 2 3 4 4 3 2 2 5 5 4 4 3 3 2 3
2 3 0 5 1 2 4 5 10 11 7 7 8 9 11 13 15 8 11 11 8 8 8 8 8 9 4 2 2 2 3 3 2 2 4 5 4 4 4 2 3 3 4 5 6 3 4 4 2
5 2 2 4 1 1 2 1 6 12 13 13 10 11 14 12 8 8 6 7 9 11 9 7 9 8 5 3 3 2 2 1 2 1 3 5 5 5 4 3 3 4 3 5 6 4 2 3 4
3 4 2 3 3 2 1 4 5 6 4 7 9 9 9 13 12 8 8 9 9 10 11 10 10 8 6 7 2 1 1 2 2 1 1 3 5 4 4 4 3 4 4 4 5 5 4 3 3
1 5 3 7 4 2 4 5 5 7 11 10 13 11 13 12 10 7 8 9 9 13 8 8 8 9 7 7 4 5 3 3 2 1 1 1 4 4 4 4 4 4 3 4 4 4 3 1 3
6 7 8 6 5 3 2 2 6 8 11 16 17 15 15 15 13 11 10 12 11 7 8 8 8 7 6 6 6 5 5 3 1 1 2 2 1 3 3 4 4 4 3 3 4 4 5 3 2
7 9 8 5 3 4 3 5 6 6 17 15 16 18 19 17 13 9 9 8 6 6 7 7 8 8 7 7 7 8 7 5 3 2 2 1 2 2 4 4 4 3 4 5 5 5 5 5 4
4 5 4 6 4 6 5 4 11 6 6 10 17 19 19 18 13 11 9 8 6 8 8 7 8 9 8 8 7 7 7 6 6 5 3 3 2 3 4 3 4 4 4 4 4 5 6 5 4
3 4 6 2 3 5 2 5 6 7 4 6 12 10 12 14 12 15 13 11 9 9 7 7 7 7 7 8 10 7 7 5 5 5 3 3 4 3 3 5 4 5 5 5 4 4 4 4 5
5 4 3 6 2 3 3 7 8 4 3 3 6 6 6 7 10 11 8 8 7 8 9 9 8 8 8 10 6 7 6 7 7 6 5 4 4 3 5 6 6 5 4 3 3 3 4 4 4
3 7 3 2 2 4 5 6 6 3 3 2 3 5 5 7 6 6 5 8 5 5 6 9 11 14 12 8 7 6 7 8 8 5 7 6 5 5 5 4 1 1 3 4 3 2 4 6 4
2 1 5 4 4 4 3 8 6 8 6 3 4 6 5 5 7 6 6 5 3 2 4 8 10 9 8 9 8 7 6 7 6 7 6 7 6 6 5 2 5 6 4 3 3 3 3 4 5
4 6 6 6 4 2 3 10 4 7 4 5 3 5 5 6 7 6 4 2 5 4 2 4 6 8 9 7 6 8 6 7 7 7 6 6 7 4 4 8 8 7 7 4 2 1 4 4 5
Wind_Direction
174 140 133 307 48 76 5 20 83 95 122 184 163 162 148 56 144 213 334 159 137 135 175 156 153 140 134 128 124 119 121 121 130 126 134 134 125 125 125 127 123 124 119 114 109 109 108 114 118
114 161 166 355 75 47 314 35 114 125 121 106 95 93 61 94 86 104 119 212 159 151 154 155 159 139 137 131 127 125 128 127 126 130 121 121 123 130 125 126 133 121 114 116 114 113 117 118 121
142 221 76 83 85 136 180 146 121 120 131 125 110 51 58 90 79 154 186 147 134 135 148 158 149 149 135 130 127 127 128 132 128 125 129 118 122 133 126 131 127 129 123 120 115 118 127 121 127
236 43 359 84 141 127 187 142 118 141 91 67 103 74 44 43 145 187 137 132 128 141 152 166 154 159 147 143 135 127 128 132 135 128 121 122 122 122 119 125 122 123 121 119 123 121 122 123 131
22 57 36 29 6 75 95 122 147 142 101 101 114 143 72 12 120 129 137 144 144 149 165 173 157 162 154 150 142 127 131 132 128 126 127 123 119 121 122 122 116 117 120 122 113 121 125 127 131
34 75 53 38 11 45 60 106 109 50 66 139 94 98 133 110 122 170 153 146 149 154 168 160 162 174 161 159 147 140 132 131 135 130 141 135 135 129 127 128 126 127 123 123 123 130 132 136 135
71 67 123 303 352 90 126 138 96 114 129 124 139 92 299 223 164 148 126 126 127 131 136 152 176 178 174 170 157 157 143 139 140 152 147 145 134 139 143 139 141 133 128 120 122 120 138 151 144
85 82 26 26 27 4 123 112 117 118 80 118 155 147 173 185 154 122 115 118 121 129 159 184 196 191 182 177 174 167 158 155 158 174 177 139 161 187 121 51 131 152 139 135 121 112 110 149 152
114 53 32 9 8 269 155 136 63 85 135 173 146 142 136 132 119 108 99 88 113 180 183 211 200 205 182 200 204 176 179 186 200 202 181 140 126 30 310 53 49 127 122 140 119 105 88 87 130
70 97 5 324 338 310 254 95 125 128 122 52 77 105 120 129 133 137 149 158 175 191 209 214 214 192 187 221 153 78 294 294 293 218 137 120 181 216 239 245 141 133 131 177 121 98 78 79 57
1 102 349 268 319 287 109 84 69 110 220 187 160 143 137 120 126 153 169 182 182 200 199 202 213 197 193 206 179 199 197 247 256 238 186 182 173 215 244 290 242 56 18 56 87 92 56 67 76
113 31 264 10 2 108 120 87 85 46 334 152 154 144 133 138 156 173 176 187 178 188 210 198 201 206 204 214 204 206 197 224 235 235 211 185 189 215 213 230 250 206 187 166 164 158 145 165 96
48 52 353 318 38 54 78 59 92 79 101 120 135 141 144 155 172 185 193 185 190 209 215 201 189 210 212 217 213 213 220 218 224 233 210 183 201 199 196 234 220 206 190 194 185 184 166 197 200
130 174 300 348 72 61 89 64 100 114 129 130 144 127 135 175 181 172 197 210 194 202 214 210 208 208 204 232 231 221 220 233 228 225 218 201 202 198 196 221 215 205 193 197 183 181 190 198 194
111 96 354 36 45 93 167 30 34 132 148 147 159 151 167 202 190 194 203 230 157 212 228 227 220 205 208 235 258 227 221 234 235 221 209 212 208 206 191 215 202 199 186 186 175 200 193 189 217
63 50 21 359 347 119 103 267 160 161 155 161 174 178 189 231 209 225 235 253 241 225 234 242 228 205 204 219 243 228 205 235 251 188 207 227 244 235 229 209 205 180 170 169 179 186 203 209 206
14 163 191 235 231 136 108 201 170 179 156 169 206 199 210 232 213 227 234 231 223 221 226 224 222 213 205 210 236 255 246 239 258 193 197 224 241 259 212 205 177 169 165 185 173 177 184 189 218
202 202 210 180 190 159 134 191 162 183 172 191 206 209 219 228 232 215 219 227 227 223 222 216 204 222 207 150 178 216 247 237 235 211 189 218 210 234 225 189 162 174 163 182 167 176 195 186 225
299 334 131 76 2 217 183 164 183 184 197 205 197 215 223 227 233 224 220 222 217 228 220 208 191 217 166 132 180 222 227 230 238 209 198 208 220 241 223 195 151 171 173 173 182 169 195 214 219
271 271 60 102 291 114 38 327 201 183 207 204 207 214 220 229 244 246 233 211 215 225 210 204 206 204 185 157 193 179 202 224 272 289 210 197 206 211 209 212 177 174 173 172 178 177 175 215 201
217 227 82 111 111 39 30 328 181 203 208 219 220 222 236 222 219 228 226 225 209 210 208 200 204 202 195 188 157 147 22 37 332 272 242 211 213 223 207 199 181 178 176 186 187 182 204 196 241
269 223 167 104 80 353 53 278 231 204 213 212 227 218 221 221 223 212 214 233 218 223 197 190 195 197 200 174 186 187 194 199 234 268 296 218 216 240 223 195 193 178 182 183 195 204 221 211 216
238 93 97 96 87 74 218 106 268 164 226 228 224 220 229 226 213 206 207 222 224 204 198 191 188 194 196 184 201 195 206 205 230 258 272 253 248 221 233 206 200 181 184 204 192 190 220 223 252
96 80 50 59 67 1 173 133 278 188 217 226 225 226 226 230 225 211 210 215 205 173 177 181 191 200 187 194 198 203 209 208 226 259 278 248 258 256 251 223 209 223 186 190 204 211 221 216 229
132 56 15 8 15 227 128 86 245 230 214 209 211 217 220 218 213 216 201 202 185 182 188 179 191 207 189 196 201 204 210 205 224 231 222 233 210 235 236 223 212 214 227 209 200 191 220 217 212
147 132 146 284 234 270 97 232 252 187 266 255 231 206 211 213 194 199 197 192 185 182 179 183 192 225 203 203 210 197 196 212 214 224 214 222 220 222 215 218 229 220 210 226 225 229 222 213 227
194 218 164 98 344 310 233 283 299 259 248 359 62 146 183 207 191 188 193 173 161 168 186 194 195 213 217 219 202 203 188 197 221 218 213 218 225 227 215 219 227 228 219 229 255 258 266 237 234
163 147 104 31 246 292 297 277 230 261 118 63 80 110 137 146 156 124 121 128 131 179 202 210 212 216 218 208 209 204 200 202 209 201 225 220 229 223 222 225 236 86 8 3 338 297 268 272 272
160 183 65 124 142 176 300 277 215 212 150 176 168 167 177 132 96 95 99 116 144 225 222 208 210 208 208 206 208 204 196 208 208 202 214 221 227 223 227 214 83 78 75 37 29 352 320 269 268
168 181 144 130 238 129 147 273 328 238 163 133 138 176 198 115 104 108 90 40 31 0 2 224 212 201 216 206 210 219 193 183 206 216 210 205 226 217 219 98 113 120 108 109 85 272 232 246 255